OV1-9

导读

OV1-9是美国OV1系列卫星之一,于1966年12月11日成功发射,是该系列中承担辐射研究任务的科学卫星。卫星质量104公斤,搭载电子磁分析仪、质子固态光谱仪等多种探测设备,主要用于分析空间环境中的电子、质子辐射特性,为人类航天活动的空间辐射防护提供早期科研数据,是美国早期空间环境探测的重要组成部分。

Basic Information
目录编号:
2610
目录名称:
OV1-9
国际标识:
1966-111A
轨道中心:
EARTH
卫星名称:
OV1-9
卫星全名:
--
卫星状态:
在轨 (已飞行21765 天)
发射日期:
1966-12-11 UTC
国别 :
美国 (US)
星等 :
--
Orbit Information
数据来源 国际轨道数据
星历时间: 2026-07-13T18:05:41+0800
22小时前
查看轨道信息
半长轴: 8866.171km
偏心率: 0.2271925
轨道倾角: 99.100°
近地点辐角 337.105°
升交点赤经 350.492°
平近点角 14.253°
近地点: 473.706km
远地点: 4502.362km
周期: 138.473分钟
每日圈数: 10.399169
Detailed Information
使用方式:
暂无
2D Orbit Map
3D Orbit Map
Orbit Altitude Analysis Chart
Orbit Inclination Analysis Chart
Orbit Comprehensive Analysis Chart
View Comprehensive Chart